Time,TemperatureF,DewpointF,PressureIn,WindDirection,WindDirectionDegrees,WindSpeedMPH,WindSpeedGustMPH,Humidity,HourlyPrecipIn,Conditions,Clouds,dailyrainin,SoftwareType,DateUTC
2013-04-23 00:00:00,29.0,28.5,30.60,WNW,292,1.0,1.0,98,0.00,,,0.00,Weather View 32 v70,2013-04-23 04:00:00,
2013-04-23 00:01:00,29.0,28.5,30.60,WNW,292,0.0,1.0,98,0.00,,,0.00,Weather View 32 v70,2013-04-23 04:01:00,
2013-04-23 00:06:00,30.0,29.5,30.60,NNW,337,1.0,2.0,98,0.00,,,0.00,Weather View 32 v70,2013-04-23 04:06:00,
2013-04-23 00:11:00,30.0,29.5,30.60,NNE,22,4.0,4.0,98,0.00,,,0.00,Weather View 32 v70,2013-04-23 04:11:00,
2013-04-23 00:16:00,30.0,29.8,30.59,NNE,22,1.0,4.0,99,0.00,,,0.00,Weather View 32 v70,2013-04-23 04:16:00,
2013-04-23 00:21:00,29.0,28.8,30.59,NNE,22,3.0,4.0,99,0.00,,,0.00,Weather View 32 v70,2013-04-23 04:21:00,
2013-04-23 00:26:00,29.0,29.0,30.59,NNE,22,3.0,4.0,100,0.00,,,0.00,Weather View 32 v70,2013-04-23 04:26:00,
2013-04-23 00:31:00,29.0,29.0,30.59,NNE,22,3.0,4.0,100,0.00,,,0.00,Weather View 32 v70,2013-04-23 04:31:00,
2013-04-23 00:36:00,29.0,28.8,30.56,NNE,22,5.0,5.0,99,0.00,,,0.00,Weather View 32 v70,2013-04-23 04:36:00,
2013-04-23 00:41:00,29.0,29.0,30.58,North,360,1.0,5.0,100,0.00,,,0.00,Weather View 32 v70,2013-04-23 04:41:00,
2013-04-23 00:46:00,29.0,29.0,30.57,North,360,0.0,5.0,100,0.00,,,0.00,Weather View 32 v70,2013-04-23 04:46:00,
2013-04-23 00:51:00,29.0,29.0,30.57,NNE,22,3.0,5.0,100,0.00,,,0.00,Weather View 32 v70,2013-04-23 04:51:00,
2013-04-23 00:56:00,29.0,29.0,30.57,NNE,22,2.0,5.0,100,0.00,,,0.00,Weather View 32 v70,2013-04-23 04:56:00,
2013-04-23 01:01:00,29.0,29.0,30.57,North,360,0.0,5.0,100,0.00,,,0.00,Weather View 32 v70,2013-04-23 05:01:00,
2013-04-23 01:06:00,28.0,28.0,30.57,North,360,2.0,5.0,100,0.00,,,0.00,Weather View 32 v70,2013-04-23 05:06:00,
2013-04-23 01:11:00,28.0,28.0,30.56,North,360,1.0,5.0,100,0.00,,,0.00,Weather View 32 v70,2013-04-23 05:11:00,
2013-04-23 01:16:00,28.0,28.0,30.56,North,360,2.0,5.0,100,0.00,,,0.00,Weather View 32 v70,2013-04-23 05:16:00,
2013-04-23 01:21:00,28.0,28.0,30.55,North,360,1.0,5.0,100,0.00,,,0.00,Weather View 32 v70,2013-04-23 05:21:00,
2013-04-23 01:26:00,27.0,27.0,30.55,North,360,0.0,5.0,100,0.00,,,0.00,Weather View 32 v70,2013-04-23 05:26:00,
2013-04-23 01:31:00,27.0,26.8,30.56,North,360,0.0,5.0,99,0.00,,,0.00,Weather View 32 v70,2013-04-23 05:31:00,
2013-04-23 01:36:00,27.0,26.5,30.55,North,360,1.0,5.0,98,0.00,,,0.00,Weather View 32 v70,2013-04-23 05:36:00,
2013-04-23 01:41:00,28.0,27.8,30.56,North,360,2.0,4.0,99,0.00,,,0.00,Weather View 32 v70,2013-04-23 05:41:00,
2013-04-23 01:46:00,28.0,28.0,30.56,North,360,2.0,4.0,100,0.00,,,0.00,Weather View 32 v70,2013-04-23 05:46:00,
2013-04-23 01:51:00,28.0,28.0,30.56,North,360,1.0,4.0,100,0.00,,,0.00,Weather View 32 v70,2013-04-23 05:51:00,
2013-04-23 01:56:00,28.0,28.0,30.56,North,360,2.0,4.0,100,0.00,,,0.00,Weather View 32 v70,2013-04-23 05:56:00,
2013-04-23 02:01:00,28.0,28.0,30.56,North,360,3.0,3.0,100,0.00,,,0.00,Weather View 32 v70,2013-04-23 06:01:00,
2013-04-23 02:06:00,28.0,28.0,30.56,North,360,1.0,3.0,100,0.00,,,0.00,Weather View 32 v70,2013-04-23 06:06:00,
2013-04-23 02:11:00,27.0,27.0,30.55,North,360,1.0,3.0,100,0.00,,,0.00,Weather View 32 v70,2013-04-23 06:11:00,
2013-04-23 02:16:00,27.0,27.0,30.55,North,360,2.0,3.0,100,0.00,,,0.00,Weather View 32 v70,2013-04-23 06:16:00,
2013-04-23 02:21:00,28.0,28.0,30.55,North,360,1.0,3.0,100,0.00,,,0.00,Weather View 32 v70,2013-04-23 06:21:00,
2013-04-23 02:26:00,27.0,27.0,30.55,North,360,0.0,3.0,100,0.00,,,0.00,Weather View 32 v70,2013-04-23 06:26:00,
2013-04-23 02:31:00,28.0,28.0,30.55,North,360,2.0,3.0,100,0.00,,,0.00,Weather View 32 v70,2013-04-23 06:31:00,
2013-04-23 02:36:00,27.0,27.0,30.55,North,360,1.0,3.0,100,0.00,,,0.00,Weather View 32 v70,2013-04-23 06:36:00,
2013-04-23 02:41:00,27.0,27.0,30.55,North,360,0.0,3.0,100,0.00,,,0.00,Weather View 32 v70,2013-04-23 06:41:00,
2013-04-23 02:46:00,27.0,27.0,30.55,North,360,2.0,3.0,100,0.00,,,0.00,Weather View 32 v70,2013-04-23 06:46:00,
2013-04-23 02:51:00,27.0,27.0,30.55,North,360,1.0,3.0,100,0.00,,,0.00,Weather View 32 v70,2013-04-23 06:51:00,
2013-04-23 02:56:00,28.0,28.0,30.55,North,360,2.0,3.0,100,0.00,,,0.00,Weather View 32 v70,2013-04-23 06:56:00,
2013-04-23 03:01:00,27.0,27.0,30.55,North,360,0.0,3.0,100,0.00,,,0.00,Weather View 32 v70,2013-04-23 07:01:00,
2013-04-23 03:06:00,28.0,28.0,30.55,North,360,3.0,3.0,100,0.00,,,0.00,Weather View 32 v70,2013-04-23 07:06:00,
2013-04-23 03:11:00,28.0,28.0,30.54,NNE,22,3.0,5.0,100,0.00,,,0.00,Weather View 32 v70,2013-04-23 07:11:00,
2013-04-23 03:16:00,28.0,28.0,30.54,NNW,337,4.0,5.0,100,0.00,,,0.00,Weather View 32 v70,2013-04-23 07:16:00,
2013-04-23 03:21:00,28.0,28.0,30.54,NNE,22,1.0,5.0,100,0.00,,,0.00,Weather View 32 v70,2013-04-23 07:21:00,
2013-04-23 03:26:00,28.0,28.0,30.54,NNW,337,2.0,5.0,100,0.00,,,0.00,Weather View 32 v70,2013-04-23 07:26:00,
2013-04-23 03:31:00,27.0,27.0,30.54,NNW,337,0.0,5.0,100,0.00,,,0.00,Weather View 32 v70,2013-04-23 07:31:00,
2013-04-23 03:36:00,27.0,27.0,30.54,NNW,337,1.0,5.0,100,0.00,,,0.00,Weather View 32 v70,2013-04-23 07:36:00,
2013-04-23 03:41:00,27.0,27.0,30.52,NNW,337,1.0,5.0,100,0.00,,,0.00,Weather View 32 v70,2013-04-23 07:41:00,
2013-04-23 03:46:00,27.0,27.0,30.52,NNW,337,1.0,5.0,100,0.00,,,0.00,Weather View 32 v70,2013-04-23 07:46:00,
2013-04-23 03:51:00,27.0,27.0,30.53,NNW,337,1.0,5.0,100,0.00,,,0.00,Weather View 32 v70,2013-04-23 07:51:00,
2013-04-23 03:56:00,27.0,27.0,30.52,NNW,337,1.0,5.0,100,0.00,,,0.00,Weather View 32 v70,2013-04-23 07:56:00,
2013-04-23 04:01:00,28.0,28.0,30.51,NNW,337,0.0,5.0,100,0.00,,,0.00,Weather View 32 v70,2013-04-23 08:01:00,
2013-04-23 04:06:00,28.0,28.0,30.51,NNW,337,2.0,5.0,100,0.00,,,0.00,Weather View 32 v70,2013-04-23 08:06:00,
2013-04-23 04:11:00,28.0,28.0,30.51,NNW,337,1.0,5.0,100,0.00,,,0.00,Weather View 32 v70,2013-04-23 08:11:00,
2013-04-23 04:16:00,28.0,28.0,30.51,NNW,337,3.0,5.0,100,0.00,,,0.00,Weather View 32 v70,2013-04-23 08:16:00,
2013-04-23 04:21:00,28.0,28.0,30.51,NNW,337,4.0,4.0,100,0.00,,,0.00,Weather View 32 v70,2013-04-23 08:21:00,
2013-04-23 04:26:00,28.0,28.0,30.48,NNW,337,1.0,4.0,100,0.00,,,0.00,Weather View 32 v70,2013-04-23 08:26:00,
2013-04-23 04:31:00,29.0,29.0,30.48,NNW,337,1.0,4.0,100,0.00,,,0.00,Weather View 32 v70,2013-04-23 08:31:00,
2013-04-23 04:36:00,29.0,29.0,30.48,NNW,337,1.0,4.0,100,0.00,,,0.00,Weather View 32 v70,2013-04-23 08:36:00,
2013-04-23 04:41:00,29.0,29.0,30.48,NNW,337,1.0,4.0,100,0.00,,,0.00,Weather View 32 v70,2013-04-23 08:41:00,
2013-04-23 04:46:00,29.0,29.0,30.51,NNW,337,3.0,4.0,100,0.00,,,0.00,Weather View 32 v70,2013-04-23 08:46:00,
2013-04-23 04:51:00,29.0,29.0,30.51,North,360,2.0,4.0,100,0.00,,,0.00,Weather View 32 v70,2013-04-23 08:51:00,
2013-04-23 04:56:00,29.0,29.0,30.51,NNW,337,1.0,6.0,100,0.00,,,0.00,Weather View 32 v70,2013-04-23 08:56:00,
2013-04-23 05:01:00,28.0,28.0,30.51,NNW,337,2.0,6.0,100,0.00,,,0.00,Weather View 32 v70,2013-04-23 09:01:00,
2013-04-23 05:06:00,28.0,28.0,30.51,North,360,1.0,6.0,100,0.00,,,0.00,Weather View 32 v70,2013-04-23 09:06:00,
2013-04-23 05:11:00,28.0,28.0,30.51,NNE,22,4.0,6.0,100,0.00,,,0.00,Weather View 32 v70,2013-04-23 09:11:00,
2013-04-23 05:16:00,28.0,28.0,30.50,NNW,337,2.0,6.0,100,0.00,,,0.00,Weather View 32 v70,2013-04-23 09:16:00,
2013-04-23 05:21:00,28.0,28.0,30.50,North,360,0.0,6.0,100,0.00,,,0.00,Weather View 32 v70,2013-04-23 09:21:00,
2013-04-23 05:26:00,28.0,28.0,30.49,NW,315,0.0,6.0,100,0.00,,,0.00,Weather View 32 v70,2013-04-23 09:26:00,
2013-04-23 05:31:00,28.0,28.0,30.49,NNW,337,1.0,6.0,100,0.00,,,0.00,Weather View 32 v70,2013-04-23 09:31:00,
2013-04-23 05:36:00,28.0,28.0,30.49,NNE,22,4.0,6.0,100,0.00,,,0.00,Weather View 32 v70,2013-04-23 09:36:00,
2013-04-23 05:41:00,28.0,28.0,30.49,South,180,1.0,6.0,100,0.00,,,0.00,Weather View 32 v70,2013-04-23 09:41:00,
2013-04-23 05:46:00,28.0,28.0,30.49,NE,45,1.0,6.0,100,0.00,,,0.00,Weather View 32 v70,2013-04-23 09:46:00,
2013-04-23 05:51:00,28.0,28.0,30.49,NNW,337,0.0,6.0,100,0.00,,,0.00,Weather View 32 v70,2013-04-23 09:51:00,
2013-04-23 05:56:00,28.0,28.0,30.49,WNW,292,1.0,6.0,100,0.00,,,0.00,Weather View 32 v70,2013-04-23 09:56:00,
2013-04-23 06:01:00,29.0,29.0,30.50,NE,45,1.0,7.0,100,0.00,,,0.00,Weather View 32 v70,2013-04-23 10:01:00,
2013-04-23 06:06:00,29.0,29.0,30.49,North,360,0.0,7.0,100,0.00,,,0.00,Weather View 32 v70,2013-04-23 10:06:00,
2013-04-23 06:11:00,29.0,29.0,30.49,NNW,337,2.0,7.0,100,0.00,,,0.00,Weather View 32 v70,2013-04-23 10:11:00,
2013-04-23 06:16:00,29.0,29.0,30.49,North,360,6.0,7.0,100,0.00,,,0.00,Weather View 32 v70,2013-04-23 10:16:00,
2013-04-23 06:21:00,29.0,29.0,30.50,West,270,1.0,7.0,100,0.00,,,0.00,Weather View 32 v70,2013-04-23 10:21:00,
2013-04-23 06:26:00,29.0,29.0,30.50,NE,45,1.0,7.0,100,0.00,,,0.00,Weather View 32 v70,2013-04-23 10:26:00,
2013-04-23 06:31:00,29.0,29.0,30.50,North,360,2.0,7.0,100,0.00,,,0.00,Weather View 32 v70,2013-04-23 10:31:00,
2013-04-23 06:36:00,29.0,29.0,30.50,NNE,22,2.0,7.0,100,0.00,,,0.00,Weather View 32 v70,2013-04-23 10:36:00,
2013-04-23 06:41:00,30.0,30.0,30.51,North,360,3.0,7.0,100,0.00,,,0.00,Weather View 32 v70,2013-04-23 10:41:00,
2013-04-23 06:46:00,30.0,30.0,30.51,NE,45,5.0,7.0,100,0.00,,,0.00,Weather View 32 v70,2013-04-23 10:46:00,
2013-04-23 06:51:00,30.0,30.0,30.51,NE,45,2.0,7.0,100,0.00,,,0.00,Weather View 32 v70,2013-04-23 10:51:00,
2013-04-23 06:56:00,31.0,31.0,30.51,ENE,67,1.0,7.0,100,0.00,,,0.00,Weather View 32 v70,2013-04-23 10:56:00,
2013-04-23 07:01:00,31.0,31.0,30.52,ENE,67,3.0,7.0,100,0.00,,,0.00,Weather View 32 v70,2013-04-23 11:01:00,
2013-04-23 07:06:00,31.0,30.8,30.53,North,360,0.0,6.0,99,0.00,,,0.00,Weather View 32 v70,2013-04-23 11:06:00,
2013-04-23 07:11:00,32.0,31.5,30.53,NE,45,1.0,6.0,98,0.00,,,0.00,Weather View 32 v70,2013-04-23 11:11:00,
2013-04-23 07:16:00,32.0,31.0,30.53,ENE,67,0.0,6.0,96,0.00,,,0.00,Weather View 32 v70,2013-04-23 11:16:00,
2013-04-23 07:21:00,32.0,31.0,30.53,WNW,292,1.0,6.0,96,0.00,,,0.00,Weather View 32 v70,2013-04-23 11:21:00,
2013-04-23 07:27:00,33.0,32.0,30.53,ESE,112,0.0,6.0,96,0.00,,,0.00,Weather View 32 v70,2013-04-23 11:27:00,
2013-04-23 07:32:00,33.0,32.0,30.53,NE,45,6.0,6.0,96,0.00,,,0.00,Weather View 32 v70,2013-04-23 11:32:00,
2013-04-23 07:37:00,33.0,31.5,30.54,North,360,7.0,7.0,94,0.00,,,0.00,Weather View 32 v70,2013-04-23 11:37:00,
2013-04-23 07:42:00,34.0,31.6,30.54,NNE,22,0.0,7.0,91,0.00,,,0.00,Weather View 32 v70,2013-04-23 11:42:00,
2013-04-23 07:47:00,35.0,32.6,30.55,ENE,67,4.0,7.0,91,0.00,,,0.00,Weather View 32 v70,2013-04-23 11:47:00,
2013-04-23 07:52:00,35.0,32.1,30.56,ESE,112,2.0,7.0,89,0.00,,,0.00,Weather View 32 v70,2013-04-23 11:52:00,
2013-04-23 07:57:00,35.0,31.8,30.57,SE,135,3.0,7.0,88,0.00,,,0.00,Weather View 32 v70,2013-04-23 11:57:00,
2013-04-23 08:02:00,35.0,31.5,30.57,East,90,6.0,7.0,87,0.00,,,0.00,Weather View 32 v70,2013-04-23 12:02:00,
2013-04-23 08:07:00,36.0,32.2,30.58,SSE,157,3.0,7.0,86,0.00,,,0.00,Weather View 32 v70,2013-04-23 12:07:00,
2013-04-23 08:12:00,36.0,31.6,30.55,SSE,157,3.0,7.0,84,0.00,,,0.00,Weather View 32 v70,2013-04-23 12:12:00,
2013-04-23 08:17:00,37.0,33.2,30.56,ENE,67,0.0,7.0,86,0.00,,,0.00,Weather View 32 v70,2013-04-23 12:17:00,
2013-04-23 08:22:00,37.0,31.7,30.59,ESE,112,1.0,7.0,81,0.00,,,0.00,Weather View 32 v70,2013-04-23 12:22:00,
2013-04-23 08:27:00,38.0,32.4,30.59,NE,45,2.0,7.0,80,0.00,,,0.00,Weather View 32 v70,2013-04-23 12:27:00,
2013-04-23 08:32:00,39.0,32.1,30.60,ESE,112,7.0,9.0,76,0.00,,,0.00,Weather View 32 v70,2013-04-23 12:32:00,
2013-04-23 08:37:00,39.0,31.7,30.61,SE,135,3.0,10.0,75,0.00,,,0.00,Weather View 32 v70,2013-04-23 12:37:00,
2013-04-23 08:42:00,39.0,31.4,30.61,ESE,112,7.0,14.0,74,0.00,,,0.00,Weather View 32 v70,2013-04-23 12:42:00,
2013-04-23 08:47:00,40.0,32.0,30.61,ESE,112,10.0,14.0,73,0.00,,,0.00,Weather View 32 v70,2013-04-23 12:47:00,
2013-04-23 08:52:00,40.0,31.3,30.61,SE,135,7.0,14.0,71,0.00,,,0.00,Weather View 32 v70,2013-04-23 12:52:00,
2013-04-23 08:57:00,39.0,31.1,30.62,SE,135,9.0,14.0,73,0.00,,,0.00,Weather View 32 v70,2013-04-23 12:57:00,
2013-04-23 09:02:00,39.0,30.7,30.62,SE,135,7.0,14.0,72,0.00,,,0.00,Weather View 32 v70,2013-04-23 13:02:00,
2013-04-23 09:07:00,39.0,31.1,30.61,SSE,157,6.0,14.0,73,0.00,,,0.00,Weather View 32 v70,2013-04-23 13:07:00,
2013-04-23 09:12:00,40.0,31.3,30.61,SE,135,11.0,14.0,71,0.00,,,0.00,Weather View 32 v70,2013-04-23 13:12:00,
2013-04-23 09:17:00,40.0,31.3,30.61,SSE,157,9.0,14.0,71,0.00,,,0.00,Weather View 32 v70,2013-04-23 13:17:00,
2013-04-23 09:22:00,40.0,31.0,30.61,SE,135,7.0,16.0,70,0.00,,,0.00,Weather View 32 v70,2013-04-23 13:22:00,
2013-04-23 09:27:00,41.0,32.0,30.62,SE,135,12.0,16.0,70,0.00,,,0.00,Weather View 32 v70,2013-04-23 13:27:00,
2013-04-23 09:32:00,41.0,31.6,30.62,SE,135,6.0,16.0,69,0.00,,,0.00,Weather View 32 v70,2013-04-23 13:32:00,
2013-04-23 09:37:00,41.0,32.0,30.61,SE,135,11.0,16.0,70,0.00,,,0.00,Weather View 32 v70,2013-04-23 13:37:00,
2013-04-23 09:42:00,40.0,30.6,30.61,South,180,8.0,16.0,69,0.00,,,0.00,Weather View 32 v70,2013-04-23 13:42:00,
2013-04-23 09:47:00,41.0,32.0,30.61,SSE,157,5.0,16.0,70,0.00,,,0.00,Weather View 32 v70,2013-04-23 13:47:00,
2013-04-23 09:52:00,41.0,32.0,30.59,SE,135,6.0,16.0,70,0.00,,,0.00,Weather View 32 v70,2013-04-23 13:52:00,
2013-04-23 09:57:00,42.0,32.2,30.60,ESE,112,7.0,16.0,68,0.00,,,0.00,Weather View 32 v70,2013-04-23 13:57:00,
2013-04-23 10:02:00,41.0,30.9,30.61,SE,135,10.0,16.0,67,0.00,,,0.00,Weather View 32 v70,2013-04-23 14:02:00,
2013-04-23 10:07:00,42.0,32.2,30.61,ESE,112,7.0,16.0,68,0.00,,,0.00,Weather View 32 v70,2013-04-23 14:07:00,
2013-04-23 10:12:00,41.0,31.6,30.61,SSE,157,1.0,16.0,69,0.00,,,0.00,Weather View 32 v70,2013-04-23 14:12:00,
2013-04-23 10:17:00,41.0,32.0,30.61,SSE,157,5.0,16.0,70,0.00,,,0.00,Weather View 32 v70,2013-04-23 14:17:00,
2013-04-23 10:22:00,41.0,32.0,30.61,SE,135,6.0,16.0,70,0.00,,,0.00,Weather View 32 v70,2013-04-23 14:22:00,
2013-04-23 10:27:00,41.0,32.3,30.60,South,180,6.0,15.0,71,0.00,,,0.00,Weather View 32 v70,2013-04-23 14:27:00,
2013-04-23 10:32:00,42.0,32.9,30.60,SE,135,7.0,15.0,70,0.00,,,0.00,Weather View 32 v70,2013-04-23 14:32:00,
2013-04-23 10:37:00,41.0,32.3,30.59,SSE,157,7.0,15.0,71,0.00,,,0.00,Weather View 32 v70,2013-04-23 14:37:00,
2013-04-23 10:42:00,41.0,32.3,30.60,SSW,202,6.0,15.0,71,0.00,,,0.00,Weather View 32 v70,2013-04-23 14:42:00,
2013-04-23 10:47:00,42.0,32.6,30.59,SE,135,7.0,13.0,69,0.00,,,0.00,Weather View 32 v70,2013-04-23 14:47:00,
2013-04-23 10:52:00,42.0,32.9,30.59,SSW,202,8.0,13.0,70,0.00,,,0.00,Weather View 32 v70,2013-04-23 14:52:00,
2013-04-23 10:57:00,42.0,32.9,30.59,South,180,7.0,13.0,70,0.00,,,0.00,Weather View 32 v70,2013-04-23 14:57:00,
2013-04-23 11:02:00,42.0,32.2,30.59,SSW,202,6.0,13.0,68,0.00,,,0.00,Weather View 32 v70,2013-04-23 15:02:00,
2013-04-23 11:07:00,41.0,32.0,30.59,ESE,112,6.0,13.0,70,0.00,,,0.00,Weather View 32 v70,2013-04-23 15:07:00,
2013-04-23 11:12:00,42.0,32.6,30.58,SSE,157,7.0,13.0,69,0.00,,,0.00,Weather View 32 v70,2013-04-23 15:12:00,
2013-04-23 11:17:00,42.0,32.6,30.58,SSE,157,7.0,13.0,69,0.00,,,0.00,Weather View 32 v70,2013-04-23 15:17:00,
2013-04-23 11:22:00,42.0,32.9,30.58,SSE,157,8.0,14.0,70,0.00,,,0.00,Weather View 32 v70,2013-04-23 15:22:00,
2013-04-23 11:27:00,42.0,32.6,30.58,SE,135,6.0,14.0,69,0.00,,,0.00,Weather View 32 v70,2013-04-23 15:27:00,
2013-04-23 11:32:00,42.0,32.9,30.58,SE,135,5.0,15.0,70,0.00,,,0.00,Weather View 32 v70,2013-04-23 15:32:00,
2013-04-23 11:37:00,43.0,33.5,30.57,SSE,157,7.0,15.0,69,0.00,,,0.00,Weather View 32 v70,2013-04-23 15:37:00,
2013-04-23 11:42:00,44.0,34.1,30.58,NE,45,3.0,15.0,68,0.00,,,0.00,Weather View 32 v70,2013-04-23 15:42:00,
2013-04-23 11:47:00,44.0,33.7,30.58,SSE,157,6.0,15.0,67,0.00,,,0.00,Weather View 32 v70,2013-04-23 15:47:00,
2013-04-23 11:52:00,44.0,33.7,30.59,SE,135,6.0,15.0,67,0.00,,,0.00,Weather View 32 v70,2013-04-23 15:52:00,
2013-04-23 11:57:00,44.0,33.7,30.59,ESE,112,7.0,15.0,67,0.00,,,0.00,Weather View 32 v70,2013-04-23 15:57:00,
2013-04-23 12:02:00,43.0,33.5,30.59,SE,135,6.0,15.0,69,0.00,,,0.00,Weather View 32 v70,2013-04-23 16:02:00,
2013-04-23 12:07:00,44.0,33.7,30.59,East,90,5.0,15.0,67,0.00,,,0.00,Weather View 32 v70,2013-04-23 16:07:00,
2013-04-23 12:12:00,44.0,34.1,30.58,SSE,157,6.0,15.0,68,0.00,,,0.00,Weather View 32 v70,2013-04-23 16:12:00,
2013-04-23 12:17:00,44.0,34.5,30.59,ESE,112,6.0,15.0,69,0.00,,,0.00,Weather View 32 v70,2013-04-23 16:17:00,
2013-04-23 12:22:00,44.0,34.1,30.57,East,90,9.0,15.0,68,0.00,,,0.00,Weather View 32 v70,2013-04-23 16:22:00,
2013-04-23 12:27:00,44.0,34.1,30.57,SE,135,4.0,15.0,68,0.00,,,0.00,Weather View 32 v70,2013-04-23 16:27:00,
2013-04-23 12:32:00,44.0,34.5,30.57,SSE,157,9.0,15.0,69,0.00,,,0.00,Weather View 32 v70,2013-04-23 16:32:00,
2013-04-23 12:37:00,44.0,34.5,30.57,SSW,202,7.0,15.0,69,0.00,,,0.00,Weather View 32 v70,2013-04-23 16:37:00,
2013-04-23 12:42:00,44.0,34.1,30.56,SSE,157,4.0,15.0,68,0.00,,,0.00,Weather View 32 v70,2013-04-23 16:42:00,
2013-04-23 12:47:00,44.0,34.1,30.56,SE,135,4.0,15.0,68,0.00,,,0.00,Weather View 32 v70,2013-04-23 16:47:00,
2013-04-23 12:52:00,44.0,33.7,30.56,South,180,7.0,15.0,67,0.00,,,0.00,Weather View 32 v70,2013-04-23 16:52:00,
2013-04-23 12:57:00,44.0,34.5,30.56,South,180,9.0,15.0,69,0.00,,,0.00,Weather View 32 v70,2013-04-23 16:57:00,
2013-04-23 13:02:00,44.0,34.1,30.55,SSE,157,5.0,15.0,68,0.00,,,0.00,Weather View 32 v70,2013-04-23 17:02:00,
2013-04-23 13:07:00,44.0,34.5,30.55,SE,135,9.0,15.0,69,0.00,,,0.00,Weather View 32 v70,2013-04-23 17:07:00,
2013-04-23 13:12:00,43.0,34.2,30.55,SSE,157,12.0,15.0,71,0.00,,,0.00,Weather View 32 v70,2013-04-23 17:12:00,
2013-04-23 13:17:00,43.0,34.2,30.54,SE,135,12.0,15.0,71,0.00,,,0.00,Weather View 32 v70,2013-04-23 17:17:00,
2013-04-23 13:22:00,43.0,34.6,30.54,SE,135,9.0,15.0,72,0.00,,,0.00,Weather View 32 v70,2013-04-23 17:22:00,
2013-04-23 13:27:00,43.0,34.6,30.53,SSW,202,9.0,15.0,72,0.00,,,0.00,Weather View 32 v70,2013-04-23 17:27:00,
2013-04-23 13:32:00,43.0,34.6,30.53,SW,225,0.0,14.0,72,0.00,,,0.00,Weather View 32 v70,2013-04-23 17:32:00,
2013-04-23 13:37:00,43.0,34.6,30.50,SE,135,6.0,14.0,72,0.00,,,0.00,Weather View 32 v70,2013-04-23 17:37:00,
2013-04-23 13:42:00,43.0,34.6,30.51,SE,135,4.0,14.0,72,0.00,,,0.00,Weather View 32 v70,2013-04-23 17:42:00,
2013-04-23 13:47:00,43.0,35.3,30.51,SE,135,9.0,14.0,74,0.00,,,0.00,Weather View 32 v70,2013-04-23 17:47:00,
2013-04-23 13:52:00,43.0,35.3,30.51,East,90,6.0,14.0,74,0.00,,,0.00,Weather View 32 v70,2013-04-23 17:52:00,
2013-04-23 13:57:00,42.0,34.3,30.50,SE,135,12.0,14.0,74,0.00,,,0.00,Weather View 32 v70,2013-04-23 17:57:00,
2013-04-23 14:02:00,42.0,35.0,30.50,SE,135,10.0,14.0,76,0.00,,,0.00,Weather View 32 v70,2013-04-23 18:02:00,
2013-04-23 14:07:00,42.0,34.6,30.50,SE,135,13.0,14.0,75,0.00,,,0.00,Weather View 32 v70,2013-04-23 18:07:00,
2013-04-23 14:12:00,42.0,34.6,30.49,South,180,9.0,14.0,75,0.00,,,0.00,Weather View 32 v70,2013-04-23 18:12:00,
2013-04-23 14:17:00,42.0,35.0,30.49,SE,135,7.0,14.0,76,0.00,,,0.00,Weather View 32 v70,2013-04-23 18:17:00,
2013-04-23 14:22:00,42.0,35.0,30.49,SSE,157,6.0,14.0,76,0.00,,,0.00,Weather View 32 v70,2013-04-23 18:22:00,
2013-04-23 14:27:00,42.0,35.0,30.49,SE,135,5.0,14.0,76,0.00,,,0.00,Weather View 32 v70,2013-04-23 18:27:00,
2013-04-23 14:32:00,43.0,36.3,30.49,SE,135,8.0,14.0,77,0.00,,,0.00,Weather View 32 v70,2013-04-23 18:32:00,
2013-04-23 14:37:00,42.0,35.6,30.49,ESE,112,6.0,14.0,78,0.00,,,0.00,Weather View 32 v70,2013-04-23 18:37:00,
2013-04-23 14:42:00,42.0,36.3,30.48,SSE,157,6.0,14.0,80,0.00,,,0.00,Weather View 32 v70,2013-04-23 18:42:00,
2013-04-23 14:47:00,41.0,36.5,30.47,SE,135,6.0,14.0,84,0.00,,,0.00,Weather View 32 v70,2013-04-23 18:47:00,
2013-04-23 14:52:00,41.0,37.1,30.47,South,180,2.0,14.0,86,0.00,,,0.00,Weather View 32 v70,2013-04-23 18:52:00,
2013-04-23 14:57:00,41.0,37.1,30.47,SSE,157,1.0,14.0,86,0.00,,,0.00,Weather View 32 v70,2013-04-23 18:57:00,
2013-04-23 15:02:00,41.0,37.7,30.46,East,90,1.0,13.0,88,0.00,,,0.00,Weather View 32 v70,2013-04-23 19:02:00,
2013-04-23 15:07:00,41.0,37.7,30.46,SSE,157,6.0,13.0,88,0.00,,,0.00,Weather View 32 v70,2013-04-23 19:07:00,
2013-04-23 15:12:00,41.0,38.0,30.45,SE,135,3.0,13.0,89,0.00,,,0.00,Weather View 32 v70,2013-04-23 19:12:00,
2013-04-23 15:17:00,42.0,39.3,30.45,NE,45,2.0,13.0,90,0.00,,,0.00,Weather View 32 v70,2013-04-23 19:17:00,
2013-04-23 15:22:00,42.0,39.3,30.45,ENE,67,7.0,13.0,90,0.00,,,0.00,Weather View 32 v70,2013-04-23 19:22:00,
2013-04-23 15:27:00,42.0,39.8,30.45,East,90,5.0,13.0,92,0.00,,,0.00,Weather View 32 v70,2013-04-23 19:27:00,
2013-04-23 15:32:00,41.0,38.9,30.45,SE,135,5.0,13.0,92,0.00,,,0.00,Weather View 32 v70,2013-04-23 19:32:00,
2013-04-23 15:37:00,41.0,39.1,30.44,East,90,6.0,12.0,93,0.00,,,0.00,Weather View 32 v70,2013-04-23 19:37:00,
2013-04-23 15:42:00,41.0,39.1,30.44,NNE,22,3.0,12.0,93,0.00,,,0.00,Weather View 32 v70,2013-04-23 19:42:00,
2013-04-23 15:47:00,41.0,39.1,30.43,East,90,6.0,9.0,93,0.00,,,0.00,Weather View 32 v70,2013-04-23 19:47:00,
2013-04-23 15:52:00,41.0,39.1,30.44,ESE,112,4.0,9.0,93,0.00,,,0.01,Weather View 32 v70,2013-04-23 19:52:00,
2013-04-23 15:57:00,41.0,39.1,30.43,ESE,112,6.0,9.0,93,0.01,,,0.01,Weather View 32 v70,2013-04-23 19:57:00,
2013-04-23 16:02:00,41.0,39.1,30.43,ESE,112,2.0,9.0,93,0.01,,,0.01,Weather View 32 v70,2013-04-23 20:02:00,
2013-04-23 16:07:00,41.0,39.1,30.43,SE,135,3.0,9.0,93,0.01,,,0.01,Weather View 32 v70,2013-04-23 20:07:00,
2013-04-23 16:12:00,42.0,40.4,30.43,NE,45,7.0,9.0,94,0.01,,,0.01,Weather View 32 v70,2013-04-23 20:12:00,
2013-04-23 16:17:00,41.0,39.4,30.43,SE,135,3.0,9.0,94,0.01,,,0.01,Weather View 32 v70,2013-04-23 20:17:00,
2013-04-23 16:22:00,41.0,39.4,30.42,ESE,112,3.0,9.0,94,0.01,,,0.01,Weather View 32 v70,2013-04-23 20:22:00,
2013-04-23 16:27:00,41.0,39.4,30.42,SE,135,6.0,9.0,94,0.01,,,0.01,Weather View 32 v70,2013-04-23 20:27:00,
2013-04-23 16:32:00,42.0,40.7,30.42,East,90,4.0,9.0,95,0.01,,,0.01,Weather View 32 v70,2013-04-23 20:32:00,
2013-04-23 16:37:00,42.0,40.7,30.42,NE,45,3.0,9.0,95,0.01,,,0.01,Weather View 32 v70,2013-04-23 20:37:00,
2013-04-23 16:42:00,42.0,40.7,30.42,East,90,4.0,9.0,95,0.01,,,0.01,Weather View 32 v70,2013-04-23 20:42:00,
2013-04-23 16:47:00,42.0,40.4,30.40,ENE,67,5.0,9.0,94,0.01,,,0.01,Weather View 32 v70,2013-04-23 20:47:00,
2013-04-23 16:52:00,42.0,40.4,30.41,NNE,22,0.0,9.0,94,0.01,,,0.01,Weather View 32 v70,2013-04-23 20:52:00,
2013-04-23 16:57:00,42.0,40.7,30.41,ENE,67,8.0,9.0,95,0.00,,,0.01,Weather View 32 v70,2013-04-23 20:57:00,
2013-04-23 17:02:00,42.0,40.7,30.41,East,90,3.0,9.0,95,0.00,,,0.01,Weather View 32 v70,2013-04-23 21:02:00,
2013-04-23 17:07:00,42.0,40.7,30.41,ENE,67,4.0,9.0,95,0.00,,,0.01,Weather View 32 v70,2013-04-23 21:07:00,
2013-04-23 17:12:00,42.0,40.7,30.40,ESE,112,4.0,9.0,95,0.00,,,0.01,Weather View 32 v70,2013-04-23 21:12:00,
2013-04-23 17:17:00,42.0,40.7,30.40,SE,135,0.0,9.0,95,0.00,,,0.01,Weather View 32 v70,2013-04-23 21:17:00,
2013-04-23 17:22:00,42.0,40.4,30.40,NNE,22,0.0,9.0,94,0.00,,,0.01,Weather View 32 v70,2013-04-23 21:22:00,
2013-04-23 17:27:00,42.0,40.1,30.40,East,90,2.0,9.0,93,0.00,,,0.01,Weather View 32 v70,2013-04-23 21:27:00,
2013-04-23 17:32:00,42.0,40.1,30.41,ENE,67,5.0,9.0,93,0.00,,,0.01,Weather View 32 v70,2013-04-23 21:32:00,
2013-04-23 17:37:00,42.0,40.1,30.40,NE,45,2.0,9.0,93,0.00,,,0.01,Weather View 32 v70,2013-04-23 21:37:00,
2013-04-23 17:42:00,42.0,40.1,30.40,ENE,67,4.0,9.0,93,0.00,,,0.01,Weather View 32 v70,2013-04-23 21:42:00,
2013-04-23 17:47:00,42.0,40.1,30.40,ENE,67,6.0,9.0,93,0.00,,,0.01,Weather View 32 v70,2013-04-23 21:47:00,
2013-04-23 17:52:00,43.0,40.8,30.41,NNE,22,0.0,9.0,92,0.00,,,0.01,Weather View 32 v70,2013-04-23 21:52:00,
2013-04-23 17:57:00,43.0,40.8,30.40,ENE,67,1.0,9.0,92,0.00,,,0.01,Weather View 32 v70,2013-04-23 21:57:00,
2013-04-23 18:02:00,43.0,40.8,30.40,ESE,112,1.0,9.0,92,0.00,,,0.01,Weather View 32 v70,2013-04-23 22:02:00,
2013-04-23 18:07:00,43.0,40.5,30.40,East,90,3.0,9.0,91,0.00,,,0.01,Weather View 32 v70,2013-04-23 22:07:00,
2013-04-23 18:12:00,43.0,40.5,30.40,East,90,1.0,9.0,91,0.00,,,0.01,Weather View 32 v70,2013-04-23 22:12:00,
2013-04-23 18:17:00,43.0,40.5,30.39,NNE,22,2.0,9.0,91,0.00,,,0.01,Weather View 32 v70,2013-04-23 22:17:00,
2013-04-23 18:22:00,43.0,40.5,30.39,ESE,112,1.0,9.0,91,0.00,,,0.01,Weather View 32 v70,2013-04-23 22:22:00,
2013-04-23 18:27:00,43.0,40.5,30.39,ESE,112,1.0,7.0,91,0.00,,,0.01,Weather View 32 v70,2013-04-23 22:27:00,
2013-04-23 18:32:00,43.0,40.5,30.39,ENE,67,3.0,7.0,91,0.00,,,0.01,Weather View 32 v70,2013-04-23 22:32:00,
2013-04-23 18:37:00,43.0,40.5,30.39,ENE,67,1.0,7.0,91,0.00,,,0.01,Weather View 32 v70,2013-04-23 22:37:00,
2013-04-23 18:42:00,43.0,40.5,30.39,ENE,67,1.0,7.0,91,0.00,,,0.01,Weather View 32 v70,2013-04-23 22:42:00,
2013-04-23 18:47:00,43.0,40.5,30.39,East,90,1.0,7.0,91,0.00,,,0.01,Weather View 32 v70,2013-04-23 22:47:00,
2013-04-23 18:52:00,43.0,40.0,30.39,ENE,67,3.0,9.0,89,0.00,,,0.01,Weather View 32 v70,2013-04-23 22:52:00,
2013-04-23 18:57:00,43.0,39.7,30.38,ENE,67,2.0,9.0,88,0.00,,,0.01,Weather View 32 v70,2013-04-23 22:57:00,
2013-04-23 19:02:00,43.0,39.4,30.38,East,90,2.0,9.0,87,0.00,,,0.01,Weather View 32 v70,2013-04-23 23:02:00,
2013-04-23 19:07:00,43.0,39.4,30.38,ESE,112,7.0,9.0,87,0.00,,,0.01,Weather View 32 v70,2013-04-23 23:07:00,
2013-04-23 19:12:00,43.0,39.4,30.38,East,90,4.0,9.0,87,0.00,,,0.01,Weather View 32 v70,2013-04-23 23:12:00,
2013-04-23 19:17:00,43.0,39.4,30.38,East,90,3.0,9.0,87,0.00,,,0.01,Weather View 32 v70,2013-04-23 23:17:00,
2013-04-23 19:22:00,43.0,39.7,30.38,SE,135,2.0,9.0,88,0.00,,,0.01,Weather View 32 v70,2013-04-23 23:22:00,
2013-04-23 19:27:00,43.0,40.0,30.38,North,360,0.0,9.0,89,0.00,,,0.01,Weather View 32 v70,2013-04-23 23:27:00,
2013-04-23 19:32:00,43.0,40.0,30.38,NNE,22,2.0,9.0,89,0.00,,,0.01,Weather View 32 v70,2013-04-23 23:32:00,
2013-04-23 19:37:00,43.0,40.3,30.38,ENE,67,4.0,9.0,90,0.00,,,0.01,Weather View 32 v70,2013-04-23 23:37:00,
2013-04-23 19:42:00,43.0,40.3,30.34,East,90,2.0,9.0,90,0.00,,,0.01,Weather View 32 v70,2013-04-23 23:42:00,
2013-04-23 19:47:00,43.0,40.3,30.36,East,90,2.0,9.0,90,0.00,,,0.01,Weather View 32 v70,2013-04-23 23:47:00,
2013-04-23 19:52:00,42.0,39.6,30.36,East,90,1.0,8.0,91,0.00,,,0.01,Weather View 32 v70,2013-04-23 23:52:00,
2013-04-23 19:57:00,43.0,40.8,30.36,ESE,112,5.0,7.0,92,0.00,,,0.01,Weather View 32 v70,2013-04-23 23:57:00,
2013-04-23 20:02:00,42.0,39.8,30.36,ENE,67,4.0,7.0,92,0.00,,,0.01,Weather View 32 v70,2013-04-24 00:02:00,
2013-04-23 20:07:00,42.0,40.1,30.35,ENE,67,2.0,9.0,93,0.00,,,0.01,Weather View 32 v70,2013-04-24 00:07:00,
2013-04-23 20:12:00,42.0,40.1,30.36,East,90,0.0,9.0,93,0.00,,,0.01,Weather View 32 v70,2013-04-24 00:12:00,
2013-04-23 20:17:00,42.0,40.1,30.35,ENE,67,0.0,9.0,93,0.01,,,0.02,Weather View 32 v70,2013-04-24 00:17:00,
2013-04-23 20:22:00,42.0,40.7,30.35,NE,45,5.0,9.0,95,0.01,,,0.02,Weather View 32 v70,2013-04-24 00:22:00,
2013-04-23 20:27:00,42.0,40.7,30.36,NE,45,3.0,9.0,95,0.01,,,0.02,Weather View 32 v70,2013-04-24 00:27:00,
2013-04-23 20:32:00,42.0,40.7,30.35,East,90,0.0,9.0,95,0.01,,,0.02,Weather View 32 v70,2013-04-24 00:32:00,
2013-04-23 20:37:00,42.0,40.7,30.35,NE,45,6.0,9.0,95,0.01,,,0.02,Weather View 32 v70,2013-04-24 00:37:00,
2013-04-23 20:42:00,42.0,40.7,30.35,East,90,1.0,9.0,95,0.01,,,0.02,Weather View 32 v70,2013-04-24 00:42:00,
2013-04-23 20:47:00,42.0,40.7,30.35,NE,45,3.0,9.0,95,0.01,,,0.02,Weather View 32 v70,2013-04-24 00:47:00,
2013-04-23 20:52:00,42.0,40.9,30.35,NE,45,3.0,9.0,96,0.01,,,0.02,Weather View 32 v70,2013-04-24 00:52:00,
2013-04-23 20:57:00,42.0,40.9,30.34,NNE,22,4.0,9.0,96,0.01,,,0.02,Weather View 32 v70,2013-04-24 00:57:00,
2013-04-23 21:02:00,42.0,40.9,30.34,North,360,0.0,9.0,96,0.01,,,0.02,Weather View 32 v70,2013-04-24 01:02:00,
2013-04-23 21:07:00,42.0,40.9,30.34,NE,45,5.0,7.0,96,0.01,,,0.02,Weather View 32 v70,2013-04-24 01:07:00,
2013-04-23 21:12:00,42.0,40.9,30.33,NNE,22,3.0,7.0,96,0.01,,,0.02,Weather View 32 v70,2013-04-24 01:12:00,
2013-04-23 21:17:00,42.0,40.9,30.33,NW,315,0.0,7.0,96,0.00,,,0.02,Weather View 32 v70,2013-04-24 01:17:00,
2013-04-23 21:22:00,42.0,40.9,30.33,ENE,67,5.0,8.0,96,0.00,,,0.02,Weather View 32 v70,2013-04-24 01:22:00,
2013-04-23 21:27:00,42.0,41.2,30.33,North,360,0.0,9.0,97,0.00,,,0.02,Weather View 32 v70,2013-04-24 01:27:00,
2013-04-23 21:32:00,42.0,41.2,30.32,NE,45,5.0,10.0,97,0.01,,,0.03,Weather View 32 v70,2013-04-24 01:32:00,
2013-04-23 21:37:00,42.0,41.2,30.32,ENE,67,2.0,10.0,97,0.01,,,0.03,Weather View 32 v70,2013-04-24 01:37:00,
2013-04-23 21:42:00,42.0,41.2,30.32,NNE,22,5.0,10.0,97,0.01,,,0.03,Weather View 32 v70,2013-04-24 01:42:00,
2013-04-23 21:47:00,42.0,41.5,30.32,ENE,67,0.0,10.0,98,0.01,,,0.03,Weather View 32 v70,2013-04-24 01:47:00,
2013-04-23 21:52:00,42.0,41.2,30.31,NNE,22,3.0,10.0,97,0.01,,,0.03,Weather View 32 v70,2013-04-24 01:52:00,
2013-04-23 21:57:00,42.0,41.2,30.30,NNE,22,0.0,10.0,97,0.01,,,0.03,Weather View 32 v70,2013-04-24 01:57:00,
2013-04-23 22:02:00,41.0,40.2,30.30,NE,45,1.0,10.0,97,0.01,,,0.03,Weather View 32 v70,2013-04-24 02:02:00,
2013-04-23 22:07:00,41.0,40.2,30.30,ENE,67,2.0,10.0,97,0.01,,,0.03,Weather View 32 v70,2013-04-24 02:07:00,
2013-04-23 22:12:00,42.0,41.2,30.30,North,360,6.0,10.0,97,0.01,,,0.03,Weather View 32 v70,2013-04-24 02:12:00,
2013-04-23 22:18:00,42.0,41.5,30.30,ENE,67,5.0,10.0,98,0.01,,,0.03,Weather View 32 v70,2013-04-24 02:18:00,
2013-04-23 22:23:00,42.0,41.5,30.30,ESE,112,2.0,10.0,98,0.02,,,0.04,Weather View 32 v70,2013-04-24 02:23:00,
2013-04-23 22:28:00,41.0,40.2,30.29,ENE,67,1.0,10.0,97,0.02,,,0.04,Weather View 32 v70,2013-04-24 02:28:00,
2013-04-23 22:33:00,41.0,40.2,30.29,NE,45,2.0,9.0,97,0.01,,,0.04,Weather View 32 v70,2013-04-24 02:33:00,
2013-04-23 22:38:00,41.0,40.2,30.27,NNE,22,0.0,9.0,97,0.01,,,0.04,Weather View 32 v70,2013-04-24 02:38:00,
2013-04-23 22:44:00,41.0,40.2,30.27,ENE,67,6.0,9.0,97,0.01,,,0.04,Weather View 32 v70,2013-04-24 02:44:00,
2013-04-23 22:49:00,42.0,41.5,30.26,ENE,67,4.0,9.0,98,0.01,,,0.04,Weather View 32 v70,2013-04-24 02:49:00,
2013-04-23 22:54:00,42.0,41.7,30.26,NE,45,3.0,10.0,99,0.01,,,0.04,Weather View 32 v70,2013-04-24 02:54:00,
2013-04-23 23:00:00,42.0,41.7,30.26,ESE,112,0.0,10.0,99,0.01,,,0.04,Weather View 32 v70,2013-04-24 03:00:00,
2013-04-23 23:05:00,42.0,41.7,30.26,SE,135,2.0,10.0,99,0.01,,,0.04,Weather View 32 v70,2013-04-24 03:05:00,
2013-04-23 23:10:00,42.0,41.7,30.25,NE,45,5.0,10.0,99,0.01,,,0.04,Weather View 32 v70,2013-04-24 03:10:00,
2013-04-23 23:15:00,42.0,41.5,30.26,ENE,67,0.0,10.0,98,0.01,,,0.04,Weather View 32 v70,2013-04-24 03:15:00,
2013-04-23 23:20:00,42.0,41.5,30.25,ESE,112,6.0,10.0,98,0.01,,,0.04,Weather View 32 v70,2013-04-24 03:20:00,
2013-04-23 23:25:00,42.0,41.5,30.22,East,90,6.0,10.0,98,0.00,,,0.04,Weather View 32 v70,2013-04-24 03:25:00,
2013-04-23 23:31:00,42.0,41.5,30.24,East,90,7.0,12.0,98,0.00,,,0.05,Weather View 32 v70,2013-04-24 03:31:00,
2013-04-23 23:36:00,42.0,41.5,30.24,NE,45,3.0,12.0,98,0.01,,,0.05,Weather View 32 v70,2013-04-24 03:36:00,
2013-04-23 23:41:00,42.0,41.5,30.24,East,90,2.0,12.0,98,0.01,,,0.05,Weather View 32 v70,2013-04-24 03:41:00,
2013-04-23 23:46:00,42.0,41.5,30.24,SE,135,9.0,12.0,98,0.01,,,0.05,Weather View 32 v70,2013-04-24 03:46:00,
2013-04-23 23:52:00,42.0,41.5,30.23,ENE,67,6.0,12.0,98,0.01,,,0.05,Weather View 32 v70,2013-04-24 03:52:00,
2013-04-23 23:57:00,42.0,41.5,30.23,SE,135,3.0,12.0,98,0.01,,,0.05,Weather View 32 v70,2013-04-24 03:57:00,